FREGAT DEB, 46238

Orbit data source: Space-Track

FREGAT DEB, 46238 is space debris in LEO originally from a launch on Mon, 18 Jul 2011 UTC launched from the Tyuratam Missile And Space Complex (TTMTR). Debris objects in space refer to the collection of defunct objects orbiting the Earth. Examples of debris include non-operational satellites, rocket bodies, and fragments generated from explosions, collisions, or faulty payload assembly.

Loading next visibility...
Identifier
46238, 2011-037JY
Orbit
LEO
Country
Flag of CISCIS
Related business
Manufacturer
Lavochkin
Mission
Spacecraft
Bus & Motor
Unknown
Mass
Unknown
Launch date (UTC)
2011-07-18 (14 years ago)
Launch vehicle
Unknown
Launch site
Tyuratam Missile And Space Complex (TTMTR)
Object type
Payload
Rocket body
Debris
Shape & HBR
Unknown
Radar Cross Section
Medium (>0.1 m² and <1 m²)

Expand to show TLE details & history
Last TLE update: 3 weeks ago

TLE from 3 weeks ago
0 FREGAT DEB
1 46238U 11037JY  25239.76851489 -.00041435  00000-0 -22464+1 0  9991
2 46238  50.4951 160.5516 0711606 296.6273  56.3292 10.34482798191373
Epoch: 2025-08-27T18:26Z
TLE epoch observation values (Epoch: 2025-08-27T18:26:39.686Z)
Latitude
-0.00002°
Longitude
-92.3549°
Altitude
2,201.602 km
Speed
6.938 km/s
True Right ascension
10h 42m 12s
True Declination
0° 00' 00"
Sunlit
Object was in daylight at epoch
Visualization orbit readout
Latitude
Unknown
Longitude
Unknown
Altitude
Unknown
Speed
Unknown
Apparent Right ascension
Unknown
Apparent Declination
Unknown
Sunlit
N/A
Visualization observer readout
Local Sidereal Time
12:40:34
Azimuth
Unknown
Elevation
Unknown
Doppler factor
Unknown
Orbital elements
Apogee altitude
3,152.763 km
Perigee altitude
1,886.427 km
Semi-major axis
8,897.732 km
Eccentricity
0.07116
Inclination
50.4951°
RAAN
160.5516°
Arg. of periapsis
296.6273°
True anomaly
63.44839°
Mean anomaly
56.3292°
Eccentric anomaly
59.85499°
Mean motion
2.58597 °/min
Orbital period
139.21 mins
BSTAR
-2.2464
Loading maneuver chart data...
Computing Atmospheric mass density...
Loading historical data...
Loading historical data...
Loading historical data...
Loading historical data...
Loading historical data...
Loading historical data...
Loading historical data...

Documentation

Showing up to 5 results
|